Regional Weather Roundup
Issued by NWS Goodland, KS

Home | Current Version | Previous Version | Graphics & Text | Print | Product List | Glossary On
Versions: 1 2 3 4 5 6 7 8 9 10 11 12 13 14 15 16 17 18 19 20 21 22 23 24 25 26 27 28 29 30 31 32 33 34 35 36 37 38 39 40 41 42 43 44 45 46 47 48 49 50
000
ASUS43 KGLD 161808
RWRGLD

GOODLAND FORECAST AREA HOURLY WEATHER ROUNDUP
NATIONAL WEATHER SERVICE GOODLAND KS
1200 PM MDT TUE SEP 16 2014

...OFFICIAL OBSERVATIONS...

CITY           SKY/WX    TMP DP  RH WIND       PRES   REMARKS
GOODLAND KS    SUNNY     73  55  53 S12G22    30.10F
HILL CITY KS   CLOUDY    66  54  65 S9        30.13F
IMPERIAL NEB   SUNNY     74  55  51 S14       30.05F
MCCOOK NEB     PTSUNNY   69  55  60 S17G24    30.08F
AKRON CO       SUNNY     79  46  31 W13       30.12F
BURLINGTON CO  SUNNY     77  53  43 SW10      30.12F
LIMON CO       SUNNY     84  32  15 N17       30.18F
$$

...UNOFFICIAL OBSERVATIONS...

CITY           SKY/WX    TMP DP  RH WIND       PRES   REMARKS
COLBY KS       SUNNY     72  59  64 S17       30.10F
GOVE KS          N/A     64  32  30 MISG        N/A
NORTON KS      CLOUDY    68  54  60 SE14      30.10
SHARON SPRINGS   N/A     73  59  60 S10G20      N/A
WAKEENEY KS      N/A     65  55  69 MISG        N/A
TRENTON NEB      N/A     72  32  23 S15         N/A
YUMA CO          N/A     81  49  32 NW7         N/A
$$


USA.gov is the U.S. government's official web portal to all federal, state and local government web resources and services.